Home   Weather   Chemnitz   Past weeks

Flag for Germany Past Weather in Chemnitz, Saxony, Germany — Yesterday and Last 2 Weeks

Now
43 °F

Light rain. Mostly cloudy.


Feels Like: 36 °F
Forecast: 34 / 41 °F
Wind: 12 mph from West

Location: Dresden-Klotzsche

Current Time: Feb 23, 2017 at 3:58:49 am

Latest Report: Feb 23, 2017 at 3:20 am


Visibility: N/A

Pressure: 29.59 "Hg

Humidity: 93%

Dew Point: 41 °F

Location of ChemnitzLocation

Past Weather in Chemnitz — Graph

°F

Chemnitz Temperature Yesterday

Maximum temperature yesterday: 52 °F (at 8:50 am)
Minimum temperature yesterday: 39 °F (at 9:50 pm)
Average temperature yesterday: 47 °F

High & Low Weather Summary for the Past Weeks

 TemperatureHumidityPressure
High54 °F (Feb 15, 2:20 pm)100% (Feb 17, 2:20 am)30.57 "Hg (Feb 17, 2:20 am)
Low19 °F (Feb 9, 6:50 am)28% (Feb 15, 2:50 pm)29.53 "Hg (Feb 22, 5:20 pm)
Average36 °F78%30.24 "Hg
* Reported Feb 8 2:20 am — Feb 23 2:50 am, Chemnitz, Weather by CustomWeather, © 2017

Note: Actual official high and low records may vary slightly from our data, if they occured in-between our weather recording intervals... More about our weather records

Advertising

Chemnitz Weather History for the Previous 24 Hours

Scroll right to see more
 ConditionsComfort  
Time TempWeatherWind HumidityBarometerVisibility
2:50 am
Thu, Feb 23
43 °FLight rain. Mostly cloudy.9 mph93%29.59 "HgN/A
2:20 am43 °FLight rain. Partly cloudy.12 mph93%29.59 "HgN/A
1:50 am43 °FLight rain. Partly cloudy.13 mph93%29.59 "HgN/A
1:20 am43 °FLight rain. Partly cloudy.12 mph87%29.59 "HgN/A
12:50 am43 °FLight rain. Passing clouds.12 mph87%29.59 "HgN/A
12:20 am41 °FLight rain. Partly cloudy.10 mph93%29.62 "HgN/A
11:50 pm
Wed, Feb 22
41 °FLight rain. Partly cloudy.9 mph93%29.62 "HgN/A
11:20 pm41 °FLight rain. Passing clouds.12 mph87%29.62 "HgN/A
10:50 pm41 °FLight rain. Passing clouds.6 mph87%29.62 "HgN/A
10:20 pm39 °FLight rain. Passing clouds.8 mph93%29.62 "HgN/A
9:50 pm39 °FLight rain. Partly cloudy.15 mph93%29.62 "HgN/A
9:20 pm41 °FLight rain. Partly cloudy.18 mph87%29.62 "HgN/A
8:50 pm43 °FLight rain. Passing clouds.16 mph93%29.59 "HgN/A
8:20 pm46 °FRain. Partly cloudy.23 mph82%29.56 "HgN/A
7:50 pm48 °FLight rain. Partly cloudy.18 mph87%29.53 "HgN/A
7:20 pm48 °FLight rain. Passing clouds.20 mph87%29.53 "HgN/A
6:50 pm48 °FLight rain. Partly cloudy.21 mph87%29.53 "HgN/A
6:20 pm48 °FLight rain. Mostly cloudy.20 mph87%29.53 "HgN/A
5:50 pm50 °FPartly cloudy.18 mph76%29.53 "HgN/A
5:20 pm50 °FBroken clouds.22 mph76%29.53 "HgN/A
4:50 pm50 °FBroken clouds.22 mph82%29.56 "HgN/A
4:20 pm52 °FPartly sunny.18 mph77%29.56 "HgN/A
3:50 pm52 °FPartly sunny.22 mph77%29.56 "HgN/A
3:20 pm52 °FPartly sunny.20 mph77%29.59 "HgN/A
2:50 pm52 °FBroken clouds.20 mph72%29.59 "HgN/A
2:20 pm52 °FLight rain. Partly sunny.21 mph72%29.59 "HgN/A
1:50 pm52 °FPartly sunny.22 mph72%29.59 "HgN/A
1:20 pm52 °FPartly sunny.20 mph77%29.59 "HgN/A
12:50 pm52 °FBroken clouds.22 mph77%29.59 "HgN/A
12:20 pm52 °FBroken clouds.18 mph77%29.59 "HgN/A
11:50 am52 °FLight rain. Broken clouds.21 mph77%29.59 "HgN/A
11:20 am52 °FLight rain. Broken clouds.21 mph77%29.62 "HgN/A
10:50 am52 °FLight rain. Cloudy.20 mph77%29.62 "HgN/A
10:20 am52 °FBroken clouds.16 mph77%29.62 "HgN/A
9:50 am52 °FBroken clouds.16 mph77%29.62 "HgN/A
9:20 am50 °FCool.16 mph82%29.65 "HgN/A
8:50 am52 °FBroken clouds.16 mph77%29.65 "HgN/A
8:20 am50 °FBroken clouds.18 mph82%29.65 "HgN/A
7:50 am50 °FBroken clouds.16 mph82%29.65 "HgN/A
7:20 am50 °FPartly sunny.15 mph82%29.65 "HgN/A
6:50 am48 °FPassing clouds.16 mph87%29.65 "HgN/A
6:20 am46 °FMostly cloudy.13 mph87%29.68 "HgN/A
5:50 am45 °FLight rain. Overcast.13 mph93%29.68 "HgN/A
5:20 am45 °FLight rain. Passing clouds.14 mph87%29.71 "HgN/A
4:50 am43 °FLight rain. Passing clouds.14 mph87%29.74 "HgN/A
4:20 am41 °FPassing clouds.10 mph87%29.74 "HgN/A
3:50 am43 °FPassing clouds.9 mph81%29.77 "HgN/A
3:20 am43 °FPassing clouds.10 mph81%29.80 "HgN/A
Weather by CustomWeather, © 2017

See weather overviewHow to use our weather pages